SCP
0 0 0 -0 0 0 0 0 0 0 0 0 0 0 0 0 0 0 0 0 0 0 0 0 0 0 -0 0 0 0 0 0 0 0 0 0 0 0 0 0 0 0 0 0
0 0 -0 -0 -0 0 0 0 0 0 0 0 0 0 0 0 0 0 0 0 0 0 0 0 0 0 -0 0 0 0 0 0 0 0 0 0 0 0 0 0 0 0 0 0
0 -0 -0 -0 -0 0 0 0 0 0 0 0 0 0 0 0 0 0 0 0 0 0 0 0 0 0 -0 -0 0 0 0 0 0 0 0 0 0 0 0 0 0 0 0 0
0 -0 -0 -0 -0 0 0 0 0 0 0 0 0 0 0 0 0 0 0 0 0 0 0 0 0 0 0 0 0 -0 -0 0 0 0 0 0 0 0 0 0 0 0 0 0
0 0 -0 -0 0 0 0 0 0 0 0 0 0 0 0 0 0 0 0 0 0 0 0 0 0 0 0 0 0 -0 0 0 0 0 0 0 0 0 -0 0 0 0 0 0
0 0 0 0 0 -0 -0 0 0 0 0 0 0 0 0 0 0 0 0 0 0 0 0 0 0 0 -0 -0 -0 0 0 0 0 0 0 0 -0 -0 -0 -0 0 0 0 0
0 0 0 0 0 0 0 0 0 0 0 0 0 0 0 0 0 0 0 0 0 0 0 0 0 0 0 0 0 0 0 0 0 0 0 0 -0 -0 -0 -0 0 0 0 0
0 0 0 0 0 0 0 0 0 0 0 0 0 0 0 0 0 0 0 0 0 0 0 0 0 0 0 0 0 -0 -0 0 0 0 0 -0 -0 -0 -0 -0 -0 0 0 0
0 0 0 0 0 0 0 0 0 0 0 0 0 0 0 0 0 0 0 0 0 0 0 0 0 0 0 0 -0 -0 -0 -0 -0 -0 -0 -0 -0 -0 -0 -0 -0 0 0 0
0 0 0 0 0 0 0 0 0 0 0 0 0 0 0 0 0 0 0 0 0 0 0 0 0 0 0 -0 -0 -0 -0 -0 -0 -0 -0 -0 -0 -0 0 0 0 0 0 0
0 0 0 0 0 0 0 0 0 0 0 0 0 0 0 0 0 0 0 0 0 0 0 0 0 0 0 -0 -0 -0 -0 -0 -0 -0 -0 -0 0 0 0 0 0 0 0 0
0 0 0 0 0 0 0 0 0 0 0 0 0 0 0 0 0 0 0 0 0 0 0 0 0 0 0 -0 -0 -0 0 -0 -0 -0 0 0 0 0 0 0 0 0 0 0
0 0 0 0 0 0 0 0 0 0 0 0 0 0 0 0 0 0 0 0 0 0 0 0 0 -0 -0 -0 -0 0 0 0 -0 0 0 0 0 0 0 0 0 0 0 0
0 0 0 0 0 0 0 0 0 0 0 0 0 0 0 0 0 0 0 0 0 0 0 0 0 -0 -0 -0 0 0 0 0 0 0 0 0 0 0 0 0 0 0 0 0
0 0 0 0 0 0 0 0 0 0 0 0 0 0 0 0 0 0 0 0 0 0 0 0 0 0 -0 -0 0 0 0 0 0 0 0 0 0 0 0 0 0 0 0 0
0 0 0 0 0 0 0 0 0 0 0 0 0 0 0 0 0 0 0 0 0 0 0 0 0 0 0 0 0 0 0 0 0 0 0 0 0 0 0 0 0 0 0 0
0 0 0 0 0 0 0 0 0 0 0 0 0 0 0 0 0 0 0 0 0 0 0 0 0 0 0 0 0 0 0 0 0 0 0 0 0 0 0 0 0 0 0 0
0 0 0 0 0 0 0 0 0 0 0 0 0 0 0 0 0 0 0 0 0 0 0 0 0 0 0 0 0 0 0 0 0 0 0 0 0 0 0 0 0 0 0 0
0 0 0 0 0 0 0 0 0 0 0 0 0 0 0 0 0 0 0 0 0 0 0 0 0 0 0 0 0 0 0 0 0 0 0 0 0 0 0 0 0 0 0 0
0 0 0 0 0 0 0 0 0 0 0 0 0 0 0 0 0 0 0 0 0 0 0 0 0 0 0 0 0 0 0 0 0 0 0 0 0 0 0 0 0 0 0 0
0 0 0 0 0 0 0 0 0 0 0 0 0 0 0 0 0 0 0 0 0 0 0 0 0 0 0 0 0 0 0 0 0 0 0 0 0 0 0 0 0 0 0 0
0 0 0 0 0 0 0 0 0 0 0 0 0 0 0 0 0 0 0 0 0 0 0 0 0 0 0 0 0 0 0 0 0 0 0 0 0 0 0 0 0 0 0 0
0 0 0 0 0 0 0 0 0 0 0 0 0 0 0 0 0 0 0 0 0 0 0 0 0 0 0 0 0 0 0 0 0 0 0 0 0 0 0 0 0 0 0 0
0 0 0 0 0 0 0 0 0 0 0 0 0 0 0 0 0 0 0 0 0 0 0 0 0 0 0 0 0 0 0 0 0 0 0 0 0 0 0 0 0 0 0 0
0 0 0 0 0 0 0 0 0 0 0 0 0 0 0 0 0 0 0 0 0 0 0 0 0 0 0 0 0 0 0 0 0 0 0 0 0 0 0 0 0 0 0 0
0 0 0 0 0 0 0 0 0 0 0 0 0 0 0 0 0 0 0 0 0 0 0 0 0 0 0 0 0 0 0 0 0 0 0 0 0 0 0 0 0 0 0 0
0 0 0 0 0 0 0 0 0 0 0 0 0 0 0 0 0 0 0 0 0 0 0 0 0 0 0 0 0 0 0 0 0 0 0 0 0 0 0 0 0 0 0 0
Wind_Speed
5 5 4 6 7 8 9 9 9 9 9 11 8 6 5 4 3 2 2 2 2 2 2 2 2 2 2 3 2 2 2 2 3 4 4 4 4 4 5 5 6 5 5 6
4 4 4 6 8 10 10 9 10 9 12 10 6 4 4 4 4 4 4 4 4 3 3 2 2 2 2 3 3 2 2 3 3 3 4 4 4 5 5 5 5 5 5 6
3 2 2 8 9 10 7 7 8 12 12 5 4 6 6 5 5 5 5 5 5 4 4 4 3 2 2 3 2 2 2 3 3 3 4 4 5 4 5 5 6 6 6 6
1 1 7 7 3 6 7 7 7 7 6 4 6 5 4 4 4 5 4 4 4 3 3 2 1 1 1 1 2 2 2 3 3 3 4 4 5 5 5 5 5 6 6 6
3 4 7 7 3 3 5 6 5 7 7 5 2 2 3 2 1 3 3 3 3 2 2 1 1 0 1 2 2 2 3 4 4 4 4 4 5 6 5 5 6 6 5 5
3 4 6 5 3 2 2 5 4 4 5 3 2 0 4 2 1 1 1 1 0 0 1 1 1 1 1 2 2 3 4 4 4 4 4 4 5 5 5 5 6 6 6 6
4 5 7 5 3 2 2 6 4 2 2 2 4 4 3 1 1 1 1 1 0 1 1 0 0 1 1 2 3 3 4 4 4 4 4 4 5 4 5 5 6 6 7 6
4 4 8 2 2 3 5 3 3 2 1 1 2 1 1 1 1 2 2 1 1 1 1 1 1 1 1 3 4 3 3 4 4 5 4 4 4 5 5 5 6 6 7 7
7 7 4 2 3 3 2 3 3 2 1 0 0 1 0 1 1 2 1 1 1 1 1 2 1 1 2 4 3 3 4 4 5 5 4 4 4 5 5 4 4 5 5 6
4 6 5 4 3 3 2 2 3 2 1 1 0 1 1 1 2 2 2 2 1 1 1 2 2 2 3 4 3 3 4 4 4 4 5 4 4 4 4 4 5 5 6 7
5 6 5 4 3 3 2 2 2 2 1 1 0 1 1 1 2 2 2 2 1 1 1 3 3 3 4 4 3 3 4 4 4 4 4 4 4 3 4 4 5 6 6 6
7 5 4 4 3 2 1 2 2 2 2 2 1 0 1 0 1 1 2 2 2 2 2 3 3 4 4 4 3 3 4 4 4 4 4 4 4 5 7 7 10 11 11 10
4 2 2 2 2 2 1 2 2 2 1 2 2 1 1 1 1 1 2 2 3 3 3 3 4 4 5 4 3 3 4 4 4 4 4 4 4 5 7 8 9 10 12 13
1 0 1 1 2 3 2 2 2 3 3 2 2 2 2 1 2 2 2 3 3 3 3 3 4 5 5 4 4 4 4 5 5 4 4 4 4 5 5 6 7 7 9 12
2 0 1 0 1 2 2 2 3 3 3 3 3 3 2 2 3 3 3 3 3 3 3 4 4 5 5 4 4 4 4 4 4 4 4 4 4 5 5 6 6 7 6 8
2 2 2 1 1 2 2 2 2 2 2 2 3 3 3 3 3 3 3 3 3 4 4 4 5 5 5 4 4 4 4 6 6 4 4 4 4 5 5 5 6 6 6 6
1 1 1 1 2 2 2 2 2 2 2 2 3 3 3 3 3 3 4 3 3 4 4 4 5 6 5 4 4 4 4 5 7 5 4 4 4 5 5 5 5 6 6 7
1 1 1 1 2 2 3 2 2 2 2 3 3 2 3 3 3 4 4 4 4 4 4 4 5 5 4 4 4 3 3 3 3 4 4 4 5 4 5 5 6 6 6 7
2 1 1 1 1 1 2 2 2 2 3 3 2 3 3 3 3 4 4 4 4 5 5 5 8 5 4 5 6 3 3 4 4 4 4 6 6 4 4 5 5 5 6 5
3 3 3 2 2 2 2 2 2 3 3 2 2 3 3 4 3 4 4 4 4 4 5 6 5 4 4 5 6 3 4 4 4 4 4 4 5 5 5 5 5 5 5 5
3 3 3 3 3 3 2 2 2 3 3 3 2 3 4 4 4 3 4 5 5 5 5 7 4 4 4 5 6 3 3 4 4 4 4 4 5 5 5 5 5 5 5 5
2 2 2 2 3 3 3 3 3 3 3 3 3 3 3 4 4 4 4 4 5 7 5 4 4 6 6 6 3 3 4 4 4 4 4 4 4 5 5 5 5 5 5 4
2 2 2 2 2 3 4 3 3 3 3 3 3 3 3 4 3 3 5 4 4 7 5 4 7 9 9 5 3 3 4 4 4 4 4 4 4 4 5 5 5 4 4 5
2 2 2 2 2 2 3 4 4 3 3 3 3 3 3 3 3 3 3 7 8 8 4 7 10 10 9 4 3 4 4 4 4 4 5 4 4 4 4 4 4 4 4 5
2 2 2 2 2 2 3 4 4 4 3 3 3 3 3 2 3 4 4 5 7 7 5 7 10 10 5 4 4 4 4 4 5 4 4 4 4 4 4 4 4 4 4 5
2 2 2 2 2 2 2 2 3 3 3 3 4 3 3 3 3 3 3 4 6 7 5 4 5 6 4 4 4 4 4 5 5 5 4 4 5 5 4 4 5 4 4 4
2 2 2 2 2 2 2 2 3 3 3 3 4 4 3 3 3 3 4 4 4 4 4 4 4 4 4 4 4 4 4 4 4 4 4 4 4 4 5 5 5 4 4 4
Wind_Direction
254 261 232 231 227 210 213 213 220 238 237 253 255 251 256 261 261 253 248 242 232 238 252 264 281 296 303 304 309 314 316 303 292 297 303 305 303 300 299 292 281 273 270 267
263 252 245 257 249 230 228 227 234 251 261 252 256 249 251 251 239 239 239 235 232 234 241 249 254 271 295 303 309 323 316 303 310 316 315 314 311 311 311 306 297 288 275 272
256 296 325 259 234 222 217 214 208 235 250 254 256 253 245 244 233 231 236 231 224 227 228 234 242 245 265 288 317 335 323 318 319 318 316 317 319 322 318 313 307 297 287 279
225 110 237 248 234 216 222 237 223 238 260 251 244 257 255 240 226 240 239 235 234 232 236 240 241 268 299 324 337 332 325 323 322 322 320 324 327 323 318 316 312 302 296 291
187 228 272 291 274 201 205 257 236 238 263 274 282 355 309 286 241 241 243 240 240 227 213 215 222 239 3 345 349 343 329 323 322 324 322 325 323 317 314 316 315 311 302 302
187 211 241 258 290 265 133 278 277 229 248 262 117 218 276 304 328 318 310 290 235 168 114 125 278 87 62 333 339 324 315 312 315 320 318 314 311 311 311 313 310 311 310 307
208 231 261 266 288 92 164 258 299 253 232 189 190 216 244 298 334 331 310 289 131 117 121 231 342 77 17 320 303 299 309 315 319 318 311 307 309 310 313 314 315 313 311 311
181 214 253 264 132 179 232 278 302 294 268 206 226 248 285 307 322 337 338 350 59 76 4 355 27 75 329 300 295 309 317 318 316 314 311 314 312 313 316 316 315 313 313 313
196 218 250 223 217 256 268 281 292 295 296 146 195 283 311 345 349 0 2 4 33 85 8 354 4 9 298 295 308 317 319 314 311 312 311 309 306 310 316 318 312 312 314 314
251 266 268 271 275 290 284 278 297 303 317 46 90 302 339 356 356 359 359 3 17 39 10 338 339 331 299 301 311 311 306 305 307 308 308 312 309 305 307 310 310 311 313 313
250 273 295 285 271 284 314 338 350 354 2 32 49 316 323 345 344 342 344 348 10 6 329 319 325 322 318 314 317 313 307 304 306 305 306 309 307 297 296 286 292 301 302 301
231 236 228 263 289 312 316 320 327 343 349 359 49 288 344 324 311 327 334 340 347 343 330 320 321 320 321 319 316 309 308 309 309 310 309 307 307 309 305 299 306 306 306 304
235 253 235 281 334 6 356 341 355 10 3 347 357 16 33 339 326 337 335 331 320 314 313 314 317 318 322 323 319 307 301 305 306 308 307 307 308 309 311 314 312 313 315 316
279 346 316 328 342 359 11 14 28 30 24 15 2 10 13 356 344 342 326 313 310 311 314 315 317 317 321 323 321 312 307 307 308 302 302 303 304 305 305 309 314 315 318 319
348 13 195 345 14 13 20 34 32 15 9 7 8 7 358 345 331 323 319 320 324 326 323 324 322 320 325 327 324 316 311 305 303 301 300 301 303 304 302 302 303 307 313 318
342 33 60 62 17 359 10 19 11 339 341 344 344 342 336 323 315 315 321 330 329 320 319 320 315 316 321 324 322 315 305 306 309 307 306 306 306 304 303 304 305 307 312 316
36 8 4 345 337 337 334 324 305 305 317 321 319 325 331 330 327 325 327 330 319 306 306 307 308 313 318 319 313 306 303 305 311 311 303 300 299 299 299 301 303 305 307 314
174 221 238 241 261 295 314 323 322 319 312 308 318 327 327 324 315 311 315 323 322 317 311 309 309 312 316 315 311 305 306 307 306 303 303 302 300 297 298 300 303 305 309 317
35 30 12 352 326 303 303 315 322 318 313 313 315 313 309 305 302 304 313 319 314 310 312 316 321 328 319 316 320 312 309 307 307 305 304 306 309 308 306 305 307 310 314 320
18 15 14 4 359 352 328 324 325 320 315 317 317 316 313 310 309 310 311 301 287 284 297 307 313 310 307 310 320 310 306 305 305 306 306 305 305 307 307 309 311 313 317 320
360 1 3 357 348 344 333 321 318 315 317 318 304 295 297 303 305 304 301 301 301 301 305 312 315 306 306 312 317 309 306 304 303 302 303 303 304 305 307 310 312 313 316 319
340 344 344 342 342 333 331 329 320 312 314 316 310 303 302 304 306 304 287 278 293 309 315 307 303 305 313 316 308 305 302 301 301 300 300 300 301 304 306 309 309 312 315 317
327 329 332 331 325 318 323 328 322 313 306 303 301 299 295 292 294 296 301 300 299 311 317 303 308 315 321 321 308 304 302 299 298 298 297 297 298 299 301 305 306 309 312 313
335 337 329 326 330 334 331 327 326 319 310 305 300 296 293 300 302 288 283 304 314 319 316 310 318 324 330 326 311 304 300 296 292 291 292 293 294 295 297 299 302 304 306 309
329 327 329 337 336 322 312 319 325 324 324 318 312 309 301 282 281 296 302 305 312 320 314 315 322 328 330 311 306 301 298 294 293 294 292 293 294 296 296 297 298 300 302 303
324 317 309 302 292 292 301 310 313 315 319 318 316 315 314 308 299 299 303 305 306 315 315 310 313 317 309 302 299 297 295 300 305 303 296 295 293 292 293 296 299 297 297 297
329 324 325 326 321 312 307 307 307 309 310 307 305 306 309 311 312 312 310 309 310 311 308 306 305 302 299 297 295 293 291 290 290 290 290 288 288 289 292 293 293 294 295 295